Regional Weather Roundup
Issued by NWS

Home | Current Version | Previous Version | Graphics & Text | Print | Product List | Glossary On
Versions: 1 2 3 4 5 6 7 8 9 10 11 12 13 14 15 16 17 18 19 20 21 22 23 24 25 26 27 28 29 30 31 32 33 34 35 36 37 38 39 40 41 42 43 44 45 46 47 48 49 50
000
ASUS45 KPSR 311310
RWRAZ

ARIZONA REGIONAL HOURLY WEATHER ROUNDUP
NATIONAL WEATHER SERVICE PHOENIX AZ
600 AM MST SAT JAN 31 2015

NOTE: FAIR INDICATES FEW OR NO CLOUDS BELOW 12,000 FEET WITH NO
SIGNIFICANT WEATHER AND/OR OBSTRUCTIONS TO VISIBILITY.

AZZ001>003-036-311400-
NORTHWEST ARIZONA

CITY           SKY/WX    TMP DP  RH WIND       PRES   REMARKS
BULLHEAD CITY  CLOUDY    55  48  76 N14       29.85R
KINGMAN        LGT RAIN  45  44  97 NE6       29.85R FOG
$$

AZZ004>008-015-016-018-311400-
NORTH CENTRAL ARIZONA

CITY           SKY/WX    TMP DP  RH WIND       PRES   REMARKS
GRAND CANYON   LGT RAIN  36  35  96 CALM      29.88S
PRESCOTT       CLOUDY    42  39  89 CALM      29.85R
FLAGSTAFF      MIX PCPN  35  32  88 CALM      29.87R
PAYSON         FOG       43  41  93 CALM      29.87S VSB 3/4
$$

AZZ009>014-017-311400-
NORTHEAST ARIZONA

CITY           SKY/WX    TMP DP  RH WIND       PRES   REMARKS
WINSLOW        CLOUDY    40  40 100 NW7       29.87R FOG
SAINT JOHNS    CLOUDY    40  38  93 N5        29.85S
WINDOW ROCK    CLOUDY    34  31  88 CALM      29.89R
SHOW LOW       CLOUDY    36  32  87 NW5       29.89R WCI  32
$$

AZZ023-311400-
GREATER PHOENIX AREA

CITY           SKY/WX    TMP DP  RH WIND       PRES   REMARKS
PHOENIX        MOCLDY    55  53  93 CALM      29.79S
BUCKEYE          N/A     55  55 100 CALM      29.81S
LUKE AFB       MOCLDY    56  55  96 NW3       29.79S
DEER VALLEY    CLOUDY    54  53  97 CALM      29.79S
SCOTTSDALE     CLOUDY    55  52  89 CALM      29.81F
MESA-FALCON    MOCLDY    52  52 100 N6        29.79
MESA-GATEWAY   CLOUDY    52  52 100 CALM      29.82S
CHANDLER       MOCLDY    54  54 100 VRB5      29.80
$$

AZZ027-028-311400-
SOUTHWEST MARICOPA COUNTY AND PINAL COUNTY

CITY           SKY/WX    TMP DP  RH WIND       PRES   REMARKS
CASA GRANDE    CLOUDY    54  52  94 CALM      29.80S
GILA BEND      LGT RAIN  57  57 100 CALM      29.79S
$$

AZZ503-504-507>509-311400-
SOUTHEAST ARIZONA

CITY           SKY/WX    TMP DP  RH WIND       PRES   REMARKS
TUCSON         RAIN      53  51  93 SW6       29.83R FOG
DAVIS-MONTHAN  LGT RAIN  52  52 100 SE7       29.81R
RYAN FIELD     LGT RAIN  52  52 100 SW7G17    29.83
NOGALES        LGT RAIN  47  44  90 SE6       29.83F
SIERRA VISTA   LGT RAIN  45  44  97 SE3       29.85R
DOUGLAS        LGT RAIN  45  43  93 E5        29.86S
SAFFORD        CLOUDY    47  45  93 SE8       29.83S
$$

AZZ020-021-025-026-031-311400-
SOUTHWEST ARIZONA

CITY           SKY/WX    TMP DP  RH WIND       PRES   REMARKS
YUMA           CLOUDY    54  52  93 CALM      29.81R
$$

CAZ031-033-041-043-047-048-061-311400-
SOUTHERN CALIFORNIA

CITY           SKY/WX    TMP DP  RH WIND       PRES   REMARKS
DOWNTOWN L.A.  PTCLDY    58  54  86 CALM      29.83S
L.A. AIRPORT   CLOUDY    57  56  96 CALM      29.84S
SAN DIEGO      MOCLDY    60  53  77 CALM      29.85F
BURBANK        CLOUDY    54  50  87 N3        29.84R
ONTARIO        CLOUDY    54  51  90 CALM      29.84S
RIVERSIDE      CLOUDY    52  50  93 CALM      29.84F
PALM SPRINGS   CLOUDY    61  48  62 NW8       29.84R
EL CENTRO NAS  MOCLDY    50  46  86 W5        29.81R
IMPERIAL       MOCLDY    50  47  89 W6        29.80R
BLYTHE         CLEAR     53  50  89 NW8       29.81S
NEEDLES        CLOUDY    55  48  77 N6        29.84R
$$

NVZ020-UTZ003-311400-
SOUTHERN NEVADA-UTAH

CITY           SKY/WX    TMP DP  RH WIND       PRES   REMARKS
LAS VEGAS      CLOUDY    49  46  90 SW9       29.83S
SALT LAKE CITY MOCLDY    37  32  82 NW7       29.96S WCI  32
$$

NMZ009-TXZ055-311400-
NEW MEXICO-WEST TEXAS

CITY           SKY/WX    TMP DP  RH WIND       PRES   REMARKS
ALBUQUERQUE    LGT RAIN  33  33 100 NW5       29.93R VSB 3/4 WCI  29
EL PASO        CLOUDY    45  41  86 N5        29.89F
$$


........................KEY........................
SKY/WX - SKY CONDITION/WEATHER
TMP    - TEMPERATURE IN FAHRENHEIT
DP     - DEW POINT IN FAHRENHEIT
RH     - RELATIVE HUMIDITY IN PERCENT
WIND   - DIRECTION AND SPEED IN MILES PER HOUR (MPH)
VRB    - VARIABLE WIND DIRECTION
PRES   - MEAN SEA LEVEL PRESSURE IN INCHES OF MERCURY
         F - FALLING PRESSURE   R - RISING PRESSURE
         S - STEADY PRESSURE
VSB    - VISIBILITY IN MILES
HX     - HEAT INDEX IN FAHRENHEIT
WCI    - WIND CHILL INDEX IN FAHRENHEIT
TC     - TEMPERATURE IN CELSIUS WHICH IS ALSO KNOWN AS
         TEMPERATURE IN CENTIGRADE
AFB    - AIR FORCE BASE
         LUKE AFB IS LUKE AIR FORCE BASE
         DAVIS-MONTHAN IS DAVIS-MONTHAN AIR FORCE BASE
NAS    - NAVAL AIR STATION
         EL CENTRO NAS IS EL CENTRO NAVAL AIR STATION
N/A    - NOT AVAILABLE



USA.gov is the U.S. government's official web portal to all federal, state and local government web resources and services.